Location: Recife
(8.0585°S, 34.8848°W)
Time: 02:25:45
(UTC-03:00)

Courier 1B Rocket - Pass Details

Date: 21 April 2026
Orbit: 920 x 1201 km, 28.2° (Epoch: 14 May)

Event Time Altitude Azimuth Distance (km) Brightness Sun altitude
Exits shadow 02:37:02 18° 128° (SE) 2,103 7.0 -41.0°
Drops below altitude 10° 02:38:33 10° 125° (SE) 2,637 7.7 -40.6°
Sets 02:41:13 0° 122° (ESE) 3,606 8.5 -40.0°
